[[{"header":{"parameterUnit":"m.s-1","parameterCategory":1,"la1":30.2991,"la2":30.254,"lo1":-89.0895,"lo2":-89.0444,"dy":0.0017,"dx":0.0017,"nx":28,"ny":28,"refTime":"2024-07-15T09:00:00:Z","depth":0,"parameterNumber":2,"parameterNumberName":"U-component_of_WINDS"},"data":[0,0,0,0,0,0,0,0,0,0,0,0,0,0,0,0,0,0,0,0,0,0,0,0,0,0,0,0,0,0,0,0,0,0,0,0,0,0,0,0,0,0,0,0,0,0,0,0,0,0,0,0,0,0,0,0,0,0,1.6664,1.6665,0,1.6741,1.6741,1.6742,1.6735,1.6734,1.6732,1.6731,1.6811,1.6814,1.6817,0,0,0,0,0,0,0,0,0,0,0,0,0,1.6511,1.6514,1.6664,1.6665,1.6666,1.674,1.6741,1.6743,1.6735,1.6734,1.6732,1.6731,1.681,1.6814,1.6818,0,0,0,0,0,0,0,0,0,0,0,0,0,1.6582,1.6515,1.6664,1.6671,1.6672,1.674,1.6741,1.6743,1.6735,1.6734,1.6732,1.673,1.6809,1.6813,1.6818,1.6884,0,0,1.6833,1.6835,0,0,0,0,0,0,0,0,1.6578,1.6587,1.6669,1.6671,1.6672,1.6726,1.6717,1.679,1.6736,1.6712,1.6731,1.6729,1.6784,1.6791,1.6809,1.6888,1.6891,1.6833,1.6836,1.6838,1.684,0,0,0,0,0,0,0,1.6573,1.6584,1.6694,1.667,1.6672,1.6671,1.6679,1.6731,1.6757,1.6714,1.6713,1.6722,1.6785,1.6805,1.6811,1.6892,1.6833,1.6838,1.6841,1.6843,1.7027,1.7029,0,0,0,0,0,0,1.6566,1.658,1.6692,1.6696,1.662,1.6675,1.6684,1.6711,1.6756,1.6762,1.6724,1.6722,1.6797,1.6806,1.6814,1.6893,1.6838,1.6843,1.6846,1.7025,1.7027,1.703,0,0,0,0,0,0,1.6563,1.6576,1.6689,1.6638,1.6652,1.6679,1.671,1.6713,1.6733,1.6764,1.6769,1.6739,1.6796,1.6807,1.6866,1.6896,1.6845,1.685,1.7023,1.7026,1.7028,1.7052,0,0,0,0,0,0,1.6558,1.6575,1.66,1.6639,1.6655,1.674,1.6712,1.6716,1.6741,1.6739,1.678,1.6785,1.6796,1.6859,1.6871,1.6902,1.6853,1.702,1.7024,1.7028,1.7049,1.7056,1.7061,0,0,0,0,0,1.6553,1.6604,1.6602,1.6615,1.6687,1.6741,1.6751,1.6762,1.6744,1.6769,1.6789,1.6784,1.6891,1.6865,1.6879,1.6911,1.7018,1.7023,1.7027,1.7046,1.7054,1.7061,0,0,0,0,0,0,1.6569,1.661,1.6607,1.6672,1.6703,1.674,1.6773,1.677,1.6807,1.6804,1.6817,1.6826,1.6885,1.6904,1.6875,1.6976,1.6952,1.6959,1.6962,1.697,1.6976,1.697,1.6857,0,0,0,0,0,1.658,1.6621,1.6654,1.6708,1.6724,1.6746,1.677,1.6775,1.6808,1.6821,1.6846,1.6878,1.6919,1.6945,1.6985,1.7052,1.706,1.708,1.7087,1.7092,1.7098,1.7134,1.7143,1.7044,1.7044,1.7044,0,0,1.6604,1.6631,1.6656,1.6712,1.6737,1.6778,1.6757,1.6802,1.6833,1.6828,1.6885,1.6904,1.6941,1.7004,1.7033,1.7021,1.7127,1.7097,1.7101,1.7105,1.7139,1.7148,1.7157,1.7047,1.7047,1.7046,0,0,1.6668,1.6693,1.674,1.6765,1.6802,1.6816,1.6828,1.6865,1.6877,1.6934,1.6931,1.6968,1.7038,1.7064,1.7087,1.7159,1.7155,1.7172,1.7204,1.7239,1.7247,1.7254,1.7279,1.7288,1.7178,1.7178,1.7178,0,1.6692,1.6754,1.6765,1.681,1.6835,1.6832,1.688,1.6904,1.6952,1.6969,1.6956,1.7043,1.7068,1.7136,1.7154,1.7173,1.7185,1.7167,1.7245,1.7252,1.7258,1.7282,1.7292,1.718,1.7179,1.7179,1.7179,0,1.6782,1.6825,1.6859,1.6905,1.6934,1.698,1.6997,1.7025,1.7028,1.7043,1.7101,1.7131,1.7175,1.7192,1.7196,1.7261,1.7252,1.7242,1.7218,1.7269,1.7292,1.7301,1.7182,1.7181,1.7181,1.7181,0,0,1.6859,1.6909,1.6921,1.6942,1.6983,1.7016,1.7062,1.7105,1.7128,1.7162,1.72,1.7259,1.7249,1.7275,1.7282,1.7312,1.7366,1.7298,1.7299,1.7309,1.7439,1.7446,1.7457,1.7364,1.7366,1.7367,1.7435,0,1.6926,1.7007,1.7017,1.7089,1.7129,1.7126,1.7166,1.7196,1.7211,1.7247,1.7264,1.7305,1.7289,1.7304,1.7334,1.7353,1.7393,1.7349,1.74,1.7402,1.739,1.7469,1.7477,1.754,1.7444,1.7446,1.7447,0,1.7015,1.705,1.7126,1.716,1.7177,1.7213,1.7253,1.7287,1.732,1.7329,1.7357,1.7359,1.7406,1.738,1.7445,1.7415,1.7437,1.7449,1.7452,1.7457,1.7427,1.7475,1.756,1.7569,1.7461,1.746,1.7459,0,1.7062,1.7128,1.7182,1.72,1.7241,1.7266,1.7285,1.7316,1.7341,1.7376,1.7392,1.7432,1.7454,1.7485,1.7498,1.7478,1.7562,1.7538,1.7571,1.757,1.7588,1.7587,1.7677,1.7603,1.7603,1.7603,1.7603,0,1.7136,1.7182,1.7203,1.7236,1.7288,1.7299,1.735,1.7367,1.7395,1.7431,1.7432,1.7466,1.7481,1.7518,1.7528,1.758,1.759,1.7598,1.7601,1.7598,1.7597,1.7612,1.7608,1.7605,1.7605,1.7604,1.7604,0,1.7197,1.7213,1.7271,1.7306,1.7315,1.7352,1.7381,1.7413,1.7427,1.7473,1.7484,1.7507,1.755,1.7566,1.7619,1.7626,1.7685,1.7684,1.7674,1.7674,1.7706,1.7703,1.7809,1.7823,1.774,1.7741,1.7742,0,1.7243,1.7278,1.7316,1.734,1.7359,1.7398,1.7423,1.7435,1.7461,1.7501,1.7528,1.757,1.7604,1.7673,1.7694,1.7734,1.7733,1.7768,1.7739,1.7735,1.7733,1.7731,1.7734,1.7773,1.7774,1.7775,1.7775,0,1.7321,1.7327,1.7364,1.7402,1.7432,1.7464,1.7494,1.7514,1.7531,1.756,1.7603,1.763,1.7682,1.7724,1.7765,1.7784,1.7782,1.7784,1.7794,1.7791,1.7783,1.7787,1.7687,1.7781,1.7781,1.778,1.778,1.778,1.7376,1.7407,1.7438,1.7478,1.7502,1.753,1.7561,1.7579,1.7615,1.7659,1.7664,1.771,1.7741,1.7796,1.7816,1.7853,1.7844,1.7858,1.7861,1.7864,1.7866,1.7778,1.786,1.786,1.786,1.786,1.786,0,1.7454,1.7474,1.751,1.7552,1.7584,1.7579,1.7612,1.7639,1.7679,1.7708,1.7742,1.7791,1.7831,1.7856,1.7896,1.792,1.7921,1.793,1.7929,1.7933,1.7873,1.786,1.793,1.793,1.793,1.7929,1.7929,1.7929,1.7498,1.755,1.756,1.7623,1.7642,1.7687,1.7706,1.7732,1.7755,1.781,1.7843,1.7859,1.7886,1.7928,1.7965,1.7971,1.7985,1.7996,1.8001,1.7944,1.7937,1.793,1.7918,1.7999,1.7999,1.8059,1.8059,1.8059]},{"header":{"parameterUnit":"m.s-1","parameterCategory":1,"la1":30.2991,"la2":30.254,"lo1":-89.0895,"lo2":-89.0444,"dy":0.0017,"dx":0.0017,"nx":28,"ny":28,"refTime":"2024-07-15T09:00:00:Z","depth":0,"parameterNumber":3,"parameterNumberName":"V-component_of_WINDS"},"data":[0,0,0,0,0,0,0,0,0,0,0,0,0,0,0,0,0,0,0,0,0,0,0,0,0,0,0,0,0,0,0,0,0,0,0,0,0,0,0,0,0,0,0,0,0,0,0,0,0,0,0,0,0,0,0,0,0,0,4.8732,4.8732,0,4.8689,4.8689,4.8688,4.8612,4.8611,4.8609,4.8608,4.8565,4.8565,4.8565,0,0,0,0,0,0,0,0,0,0,0,0,0,4.875,4.8751,4.8732,4.8732,4.8731,4.8689,4.8689,4.8688,4.8612,4.861,4.8609,4.8607,4.8565,4.8565,4.8565,0,0,0,0,0,0,0,0,0,0,0,0,0,4.8729,4.8751,4.8733,4.8688,4.8684,4.8689,4.8689,4.8688,4.8613,4.861,4.8608,4.8606,4.8564,4.8565,4.8565,4.861,0,0,4.8566,4.8566,0,0,0,0,0,0,0,0,4.873,4.8728,4.8695,4.8691,4.8687,4.8654,4.8679,4.8662,4.8613,4.864,4.8608,4.8605,4.8596,4.8594,4.859,4.8608,4.8606,4.8566,4.8566,4.8566,4.8566,0,0,0,0,0,0,0,4.8732,4.8729,4.8715,4.8695,4.869,4.8671,4.8666,4.8676,4.8631,4.8637,4.8632,4.8628,4.8593,4.859,4.8589,4.8606,4.8566,4.8566,4.8566,4.8567,4.8658,4.8661,0,0,0,0,0,0,4.8739,4.8731,4.8717,4.8714,4.8703,4.8673,4.8666,4.8666,4.863,4.8623,4.8629,4.8624,4.8591,4.8589,4.8587,4.8637,4.8566,4.8567,4.8567,4.8656,4.8659,4.8661,0,0,0,0,0,0,4.874,4.8739,4.8718,4.8721,4.8717,4.8675,4.8675,4.8667,4.8664,4.8624,4.8616,4.8634,4.8589,4.8587,4.8605,4.8635,4.8567,4.8567,4.8654,4.8657,4.866,4.8738,0,0,0,0,0,0,4.8741,4.8739,4.8756,4.8722,4.8717,4.8737,4.8677,4.8667,4.8664,4.8657,4.8627,4.862,4.8587,4.8605,4.8605,4.8634,4.8567,4.8651,4.8655,4.8659,4.8733,4.8744,4.8753,0,0,0,0,0,4.8742,4.878,4.8757,4.8756,4.8737,4.8739,4.8736,4.8697,4.8667,4.8683,4.8658,4.8621,4.8632,4.8607,4.8607,4.8636,4.8649,4.8654,4.8659,4.8728,4.8742,4.8753,0,0,0,0,0,0,4.8819,4.8775,4.8749,4.8777,4.8762,4.8726,4.8745,4.8713,4.8707,4.87,4.8653,4.8646,4.8671,4.8655,4.8629,4.8678,4.8634,4.864,4.8687,4.87,4.871,4.8713,4.8568,0,0,0,0,0,4.8839,4.8844,4.8805,4.8834,4.8828,4.8788,4.8788,4.8759,4.8742,4.8735,4.8711,4.8696,4.8696,4.8697,4.8695,4.873,4.8723,4.875,4.8761,4.8769,4.8774,4.8791,4.8803,4.8678,4.8678,4.8678,0,0,4.8881,4.8857,4.8863,4.8849,4.8834,4.884,4.8783,4.8793,4.8797,4.8737,4.8752,4.8735,4.8715,4.8742,4.8753,4.873,4.8807,4.8776,4.8783,4.8783,4.8798,4.881,4.882,4.8682,4.8681,4.868,0,0,4.896,4.8943,4.8965,4.8951,4.8929,4.8903,4.8908,4.8877,4.8862,4.8877,4.8832,4.8837,4.8838,4.8825,4.8819,4.8895,4.886,4.8896,4.8949,4.8966,4.8976,4.8985,4.9011,4.9021,4.8901,4.8901,4.8901,0,4.9015,4.9022,4.898,4.8992,4.8987,4.8933,4.8955,4.8944,4.8923,4.892,4.8895,4.8895,4.8878,4.8901,4.8919,4.8916,4.8921,4.8898,4.8978,4.8986,4.8993,4.9018,4.9028,4.8905,4.8905,4.8904,4.8904,0,4.9091,4.9097,4.9117,4.9097,4.9095,4.9112,4.9073,4.9075,4.9047,4.9023,4.9039,4.9017,4.9009,4.9013,4.8986,4.9032,4.9019,4.8987,4.8941,4.901,4.9033,4.9042,4.8912,4.891,4.8909,4.8908,0,0,4.9216,4.9174,4.9182,4.9172,4.9144,4.9148,4.9163,4.9155,4.9158,4.9145,4.9156,4.9159,4.9129,4.9122,4.9093,4.9108,4.9169,4.9074,4.9073,4.9092,4.9218,4.9242,4.9254,4.9146,4.9148,4.9149,4.922,0,4.9289,4.9311,4.9274,4.9305,4.931,4.9259,4.9272,4.9256,4.9235,4.9236,4.9212,4.9214,4.9175,4.917,4.9184,4.9159,4.9194,4.9153,4.9156,4.9156,4.9162,4.9266,4.9291,4.9359,4.9228,4.923,4.9231,0,4.9377,4.9368,4.94,4.937,4.937,4.9383,4.9372,4.9374,4.9356,4.9339,4.9332,4.9298,4.931,4.9268,4.9284,4.9258,4.9257,4.9245,4.9246,4.9245,4.9197,4.9266,4.9379,4.9389,4.9244,4.9243,4.9242,0,4.9464,4.9461,4.9479,4.9473,4.9439,4.9448,4.9435,4.9414,4.9412,4.9403,4.9401,4.9394,4.939,4.9386,4.9351,4.9323,4.9372,4.9326,4.9358,4.9359,4.937,4.9369,4.9484,4.9371,4.9371,4.937,4.937,0,4.9549,4.957,4.9518,4.9529,4.9551,4.9509,4.9532,4.9513,4.9496,4.9502,4.9458,4.9466,4.9419,4.9422,4.9395,4.9412,4.9411,4.9398,4.939,4.9401,4.9403,4.9399,4.9393,4.9373,4.9372,4.9372,4.9371,0,4.965,4.9616,4.9633,4.9599,4.9591,4.9609,4.9581,4.959,4.9566,4.9575,4.9574,4.9537,4.9537,4.9502,4.9496,4.9477,4.9507,4.9491,4.9513,4.9507,4.9541,4.9538,4.9657,4.967,4.9549,4.9551,4.9552,0,4.9706,4.9721,4.9689,4.9691,4.9679,4.9682,4.9679,4.9638,4.9637,4.9617,4.9629,4.9626,4.9621,4.9625,4.9597,4.9592,4.9575,4.9617,4.9574,4.9584,4.9575,4.9574,4.9575,4.9626,4.9627,4.9628,4.9629,0,4.9809,4.9791,4.9789,4.9781,4.9779,4.9771,4.9759,4.9763,4.9718,4.972,4.972,4.9716,4.9709,4.9707,4.9697,4.9683,4.9649,4.9643,4.965,4.9661,4.9673,4.9667,4.9537,4.9641,4.9639,4.9639,4.9638,4.9638,4.9888,4.9899,4.9878,4.9877,4.9865,4.9856,4.9862,4.9839,4.9838,4.9829,4.9806,4.981,4.9791,4.9773,4.9763,4.9765,4.9744,4.9755,4.9757,4.976,4.9766,4.9674,4.9763,4.9763,4.9763,4.9762,4.9762,0,4.9988,4.9972,4.9972,4.9957,4.9957,4.9925,4.9911,4.9913,4.9917,4.9902,4.9898,4.9899,4.9896,4.9868,4.9862,4.987,4.9854,4.987,4.9868,4.9865,4.9785,4.978,4.9882,4.9882,4.9882,4.9882,4.9882,4.9882,5.004,5.0056,5.0036,5.0046,5.003,5.0034,5.0029,5.002,5.0008,5.001,5.0008,4.9989,4.9969,4.9962,4.9958,4.995,4.995,4.997,4.9957,4.9883,4.9871,4.986,4.9854,4.9971,4.9971,5.0037,5.0037,5.0038]}]]